| time (UTC) | temp F | wind direction | speed knots | gust knots | rain 1hr in | rain 24hr in | rain mn in | humidity % | barometer mb |
| 20260902195111 | 95 | 229 | 1.7 | 5.2 | 0.00 | 0.00 | 0.00 | 51 | 989.0 |
| 20260902194611 | 95 | 258 | 1.7 | 5.2 | 0.00 | 0.00 | 0.00 | 51 | 989.1 |
| 20260902194111 | 95 | 230 | 2.6 | 5.2 | 0.00 | 0.00 | 0.00 | 51 | 989.1 |
| 20260902193112 | 95 | 223 | 2.6 | 4.3 | 0.00 | 0.00 | 0.00 | 53 | 989.2 |
| 20260902192611 | 95 | 204 | 0.9 | 4.3 | 0.00 | 0.00 | 0.00 | 52 | 989.3 |
| 20260902191112 | 95 | 218 | 1.7 | 4.3 | 0.00 | 0.00 | 0.00 | 52 | 989.5 |
| 20260902190611 | 95 | 235 | 2.6 | 4.3 | 0.00 | 0.00 | 0.00 | 50 | 989.5 |
| 20260902190111 | 95 | 226 | 1.7 | 4.3 | 0.00 | 0.00 | 0.00 | 51 | 989.5 |
| 20260902185611 | 95 | 228 | 1.7 | 5.2 | 0.00 | 0.00 | 0.00 | 51 | 989.5 |
| 20260902185112 | 96 | 230 | 2.6 | 5.2 | 0.00 | 0.00 | 0.00 | 51 | 989.5 |
| 20260902184612 | 96 | 223 | 1.7 | 4.3 | 0.00 | 0.00 | 0.00 | 52 | 989.5 |
| 20260902184111 | 95 | 215 | 2.6 | 6.1 | 0.00 | 0.00 | 0.00 | 53 | 989.6 |
| 20260902183612 | 95 | 236 | 2.6 | 6.1 | 0.00 | 0.00 | 0.00 | 52 | 989.6 |
| 20260902183111 | 94 | 193 | 1.7 | 5.2 | 0.00 | 0.00 | 0.00 | 53 | 989.6 |
| 20260902182611 | 94 | 235 | 2.6 | 5.2 | 0.00 | 0.00 | 0.00 | 52 | 989.6 |
| 20260902181611 | 93 | 206 | 1.7 | 7.8 | 0.00 | 0.00 | 0.00 | 56 | 989.6 |
| 20260902181111 | 93 | 249 | 2.6 | 7.0 | 0.00 | 0.00 | 0.00 | 54 | 989.7 |
| 20260902180611 | 93 | 242 | 1.7 | 7.0 | 0.00 | 0.00 | 0.00 | 54 | 989.8 |
| 20260902180111 | 93 | 228 | 0.9 | 6.1 | 0.00 | 0.00 | 0.00 | 54 | 989.9 |
| 20260902175112 | 94 | 226 | 2.6 | 7.0 | 0.00 | 0.00 | 0.00 | 53 | 989.9 |
| 20260902174611 | 94 | 260 | 1.7 | 4.3 | 0.00 | 0.00 | 0.00 | 55 | 989.9 |
| 20260902174111 | 94 | 220 | 1.7 | 6.1 | 0.00 | 0.00 | 0.00 | 53 | 989.9 |
| 20260902173611 | 93 | 224 | 1.7 | 5.2 | 0.00 | 0.00 | 0.00 | 53 | 990.0 |
| 20260902173112 | 93 | 251 | 2.6 | 4.3 | 0.00 | 0.00 | 0.00 | 53 | 990.1 |
| 20260902172611 | 93 | 223 | 1.7 | 2.6 | 0.00 | 0.00 | 0.00 | 55 | 990.1 |
| 20260902172111 | 93 | 236 | 1.7 | 5.2 | 0.00 | 0.00 | 0.00 | 55 | 990.3 |
| 20260902171611 | 93 | 209 | 1.7 | 2.6 | 0.00 | 0.00 | 0.00 | 54 | 990.2 |
| 20260902171111 | 93 | 234 | 0.9 | 2.6 | 0.00 | 0.00 | 0.00 | 54 | 990.2 |
| 20260902170610 | 93 | 290 | 2.6 | 6.1 | 0.00 | 0.00 | 0.00 | 56 | 990.3 |
| 20260902170112 | 93 | 236 | 2.6 | 5.2 | 0.00 | 0.00 | 0.00 | 55 | 990.3 |
| 20260902165611 | 92 | 230 | 1.7 | 5.2 | 0.00 | 0.00 | 0.00 | 55 | 990.3 |
| 20260902164611 | 92 | 271 | 1.7 | 5.2 | 0.00 | 0.00 | 0.00 | 56 | 990.5 |
| 20260902164111 | 92 | 223 | 1.7 | 6.1 | 0.00 | 0.00 | 0.00 | 56 | 990.4 |
| 20260902163611 | 93 | 231 | 1.7 | 4.3 | 0.00 | 0.00 | 0.00 | 56 | 990.4 |
| 20260902163111 | 93 | 232 | 2.6 | 2.6 | 0.00 | 0.00 | 0.00 | 56 | 990.4 |
| 20260902162611 | 93 | 227 | 1.7 | 2.6 | 0.00 | 0.00 | 0.00 | 57 | 990.4 |
| 20260902161611 | 91 | 282 | 0.9 | 4.3 | 0.00 | 0.00 | 0.00 | 57 | 990.4 |
| 20260902161111 | 91 | 246 | 1.7 | 4.3 | 0.00 | 0.00 | 0.00 | 59 | 990.4 |
| 20260902160111 | 91 | 241 | 2.6 | 6.1 | 0.00 | 0.00 | 0.00 | 58 | 990.5 |
| 20260902155611 | 91 | 289 | 2.6 | 6.1 | 0.00 | 0.00 | 0.00 | 59 | 990.5 |
| 20260902155111 | 91 | 232 | 0.9 | 2.6 | 0.00 | 0.00 | 0.00 | 60 | 990.5 |
| 20260902154611 | 91 | 246 | 0.9 | 2.6 | 0.00 | 0.00 | 0.00 | 61 | 990.5 |
| 20260902153111 | 91 | 234 | 1.7 | 5.2 | 0.00 | 0.00 | 0.00 | 61 | 990.6 |
| 20260902152611 | 91 | 228 | 1.7 | 4.3 | 0.00 | 0.00 | 0.00 | 60 | 990.7 |
| 20260902152111 | 90 | 212 | 1.7 | 2.6 | 0.00 | 0.00 | 0.00 | 62 | 990.7 |
| 20260902151111 | 90 | 246 | 0.9 | 1.7 | 0.00 | 0.00 | 0.00 | 64 | 990.7 |
| 20260902150611 | 89 | 233 | 0.9 | 2.6 | 0.00 | 0.00 | 0.00 | 63 | 990.7 |
| 20260902150111 | 90 | 241 | 0.0 | 1.7 | 0.00 | 0.00 | 0.00 | 66 | 990.7 |
| 20260902145611 | 89 | 235 | 0.0 | 1.7 | 0.00 | 0.00 | 0.00 | 68 | 990.7 |
| 20260902145111 | 89 | 173 | 0.9 | 1.7 | 0.00 | 0.00 | 0.00 | 66 | 990.7 |
| 20260902144111 | 88 | 226 | 0.9 | 1.7 | 0.00 | 0.00 | 0.00 | 67 | 990.8 |
| 20260902143110 | 87 | 211 | 0.0 | 1.7 | 0.00 | 0.00 | 0.00 | 71 | 990.7 |
| 20260902142611 | 86 | 224 | 0.0 | 0.9 | 0.00 | 0.00 | 0.00 | 73 | 990.7 |
| 20260902142111 | 85 | 213 | 0.0 | 1.7 | 0.00 | 0.00 | 0.00 | 74 | 990.7 |
| 20260902141611 | 85 | 171 | 0.9 | 2.6 | 0.00 | 0.00 | 0.00 | 74 | 990.7 |
| 20260902141111 | 84 | 220 | 0.0 | 1.7 | 0.00 | 0.00 | 0.00 | 75 | 990.6 |
| 20260902140611 | 83 | 202 | 0.0 | 1.7 | 0.00 | 0.00 | 0.00 | 77 | 990.7 |
| 20260902140111 | 82 | 179 | 0.0 | 1.7 | 0.00 | 0.00 | 0.00 | 78 | 990.7 |
| 20260902135611 | 81 | 147 | 0.9 | 1.7 | 0.00 | 0.00 | 0.00 | 80 | 990.8 |
| 20260902135110 | 80 | 210 | 0.0 | 1.7 | 0.00 | 0.00 | 0.00 | 83 | 990.8 |
| 20260902134610 | 79 | 134 | 0.9 | 1.7 | 0.00 | 0.00 | 0.00 | 84 | 990.8 |
| 20260902134111 | 78 | 135 | 0.0 | 1.7 | 0.00 | 0.00 | 0.00 | 86 | 990.9 |
| 20260902133610 | 78 | 163 | 0.9 | 1.7 | 0.00 | 0.00 | 0.00 | 87 | 990.9 |
| 20260902133110 | 77 | 132 | 0.9 | 1.7 | 0.00 | 0.00 | 0.00 | 88 | 990.9 |
| 20260902132611 | 77 | 123 | 0.9 | 1.7 | 0.00 | 0.00 | 0.00 | 88 | 990.9 |
| 20260902132111 | 76 | 135 | 0.9 | 1.7 | 0.00 | 0.00 | 0.00 | 89 | 990.9 |
| 20260902131611 | 76 | 121 | 0.9 | 2.6 | 0.00 | 0.00 | 0.00 | 90 | 990.8 |
| 20260902131110 | 76 | 137 | 0.9 | 1.7 | 0.00 | 0.00 | 0.00 | 91 | 990.8 |
| 20260902130111 | 74 | 129 | 0.0 | 1.7 | 0.00 | 0.00 | 0.00 | 93 | 990.8 |
| 20260902125610 | 74 | 155 | 0.0 | 0.9 | 0.00 | 0.00 | 0.00 | 94 | 990.8 |
| 20260902125110 | 73 | 128 | 0.0 | 0.9 | 0.00 | 0.00 | 0.00 | 95 | 990.8 |
| 20260902124110 | 73 | 121 | 0.0 | 1.7 | 0.00 | 0.00 | 0.00 | 97 | 990.7 |
| 20260902123610 | 73 | 118 | 0.0 | 1.7 | 0.00 | 0.00 | 0.00 | 97 | 990.7 |
| 20260902123110 | 73 | 142 | 0.0 | 0.0 | 0.00 | 0.00 | 0.00 | 97 | 990.7 |
| 20260902122611 | 73 | 142 | 0.0 | 0.0 | 0.00 | 0.00 | 0.00 | 97 | 990.7 |
| 20260902122111 | 72 | 142 | 0.0 | 0.0 | 0.00 | 0.00 | 0.00 | 97 | 990.6 |
| 20260902121611 | 72 | 142 | 0.0 | 0.0 | 0.00 | 0.00 | 0.00 | 97 | 990.6 |
| 20260902121111 | 72 | 142 | 0.0 | 0.0 | 0.00 | 0.00 | 0.00 | 97 | 990.6 |
| 20260902120111 | 71 | 112 | 0.0 | 0.0 | 0.00 | 0.00 | 0.00 | 97 | 990.5 |
| 20260902115610 | 71 | 112 | 0.0 | 0.0 | 0.00 | 0.00 | 0.00 | 97 | 990.5 |
| 20260902115111 | 71 | 112 | 0.0 | 0.0 | 0.00 | 0.00 | 0.00 | 97 | 990.5 |
| 20260902114611 | 71 | 112 | 0.0 | 0.0 | 0.00 | 0.00 | 0.00 | 97 | 990.4 |
| 20260902114110 | 71 | 112 | 0.0 | 0.0 | 0.00 | 0.00 | 0.00 | 97 | 990.3 |
| 20260902113111 | 71 | 112 | 0.0 | 0.0 | 0.00 | 0.00 | 0.00 | 97 | 990.2 |
| 20260902112611 | 71 | 112 | 0.0 | 0.0 | 0.00 | 0.00 | 0.00 | 97 | 990.2 |
| 20260902112111 | 71 | 112 | 0.0 | 0.0 | 0.00 | 0.00 | 0.00 | 97 | 990.2 |
| 20260902111111 | 71 | 112 | 0.0 | 0.0 | 0.00 | 0.00 | 0.00 | 97 | 990.0 |
| 20260902110610 | 72 | 112 | 0.0 | 0.0 | 0.00 | 0.00 | 0.00 | 97 | 990.0 |
| 20260902105610 | 71 | 153 | 0.0 | 0.0 | 0.00 | 0.00 | 0.00 | 97 | 990.0 |
| 20260902104611 | 71 | 153 | 0.0 | 0.0 | 0.00 | 0.00 | 0.00 | 97 | 990.0 |
| 20260902104110 | 71 | 153 | 0.0 | 0.0 | 0.00 | 0.00 | 0.00 | 96 | 990.1 |
| 20260902103610 | 71 | 153 | 0.0 | 0.0 | 0.00 | 0.00 | 0.00 | 96 | 990.1 |
| 20260902103111 | 71 | 153 | 0.0 | 0.0 | 0.00 | 0.00 | 0.00 | 96 | 990.1 |
| 20260902102611 | 71 | 153 | 0.0 | 0.0 | 0.00 | 0.00 | 0.00 | 96 | 990.0 |
| 20260902102110 | 71 | 153 | 0.0 | 0.0 | 0.00 | 0.00 | 0.00 | 96 | 990.0 |
| 20260902101610 | 71 | 153 | 0.0 | 0.0 | 0.00 | 0.00 | 0.00 | 96 | 990.0 |
| 20260902101111 | 71 | 153 | 0.0 | 0.0 | 0.00 | 0.00 | 0.00 | 96 | 990.0 |
| 20260902100611 | 72 | 153 | 0.0 | 0.0 | 0.00 | 0.00 | 0.00 | 96 | 990.0 |
| 20260902095610 | 72 | 153 | 0.0 | 0.0 | 0.00 | 0.00 | 0.00 | 96 | 990.0 |
| 20260902095110 | 72 | 153 | 0.0 | 0.0 | 0.00 | 0.00 | 0.00 | 96 | 989.9 |
| 20260902094110 | 72 | 128 | 0.0 | 0.9 | 0.00 | 0.00 | 0.00 | 97 | 989.9 |
| 20260902093110 | 72 | 136 | 0.0 | 0.0 | 0.00 | 0.00 | 0.00 | 96 | 989.9 |
| 20260902092110 | 72 | 136 | 0.0 | 0.0 | 0.00 | 0.00 | 0.00 | 96 | 989.9 |
| 20260902091610 | 72 | 136 | 0.0 | 0.0 | 0.00 | 0.00 | 0.00 | 96 | 989.8 |
| 20260902091111 | 72 | 136 | 0.0 | 0.0 | 0.00 | 0.00 | 0.00 | 96 | 989.8 |
| 20260902090611 | 72 | 136 | 0.0 | 0.0 | 0.00 | 0.00 | 0.00 | 96 | 989.8 |
| 20260902090110 | 72 | 136 | 0.0 | 0.0 | 0.00 | 0.00 | 0.00 | 96 | 989.7 |
| 20260902085610 | 72 | 136 | 0.0 | 0.0 | 0.00 | 0.00 | 0.00 | 96 | 989.7 |
| 20260902085110 | 72 | 136 | 0.0 | 0.0 | 0.00 | 0.00 | 0.00 | 95 | 989.7 |
| 20260902084611 | 72 | 136 | 0.0 | 0.0 | 0.00 | 0.00 | 0.00 | 95 | 989.6 |
| 20260902084110 | 73 | 136 | 0.0 | 0.0 | 0.00 | 0.00 | 0.00 | 95 | 989.6 |
| 20260902083610 | 73 | 136 | 0.0 | 0.0 | 0.00 | 0.00 | 0.00 | 96 | 989.5 |
| 20260902082611 | 73 | 136 | 0.0 | 0.0 | 0.00 | 0.00 | 0.00 | 96 | 989.4 |
| 20260902082110 | 72 | 136 | 0.0 | 0.0 | 0.00 | 0.00 | 0.00 | 96 | 989.3 |
| 20260902081610 | 72 | 136 | 0.0 | 0.0 | 0.00 | 0.00 | 0.00 | 95 | 989.4 |
| 20260902081110 | 72 | 139 | 0.0 | 0.9 | 0.00 | 0.00 | 0.00 | 95 | 989.4 |
| 20260902080610 | 72 | 16 | 0.0 | 0.0 | 0.00 | 0.00 | 0.00 | 95 | 989.3 |
| 20260902080110 | 72 | 357 | 0.0 | 0.0 | 0.00 | 0.00 | 0.00 | 95 | 989.2 |
| 20260902075610 | 73 | 357 | 0.0 | 0.0 | 0.00 | 0.00 | 0.00 | 95 | 989.2 |
| 20260902075110 | 73 | 357 | 0.0 | 0.0 | 0.00 | 0.00 | 0.00 | 95 | 989.2 |
| 20260902074610 | 73 | 357 | 0.0 | 0.0 | 0.00 | 0.00 | 0.00 | 95 | 989.2 |
| 20260902074110 | 73 | 357 | 0.0 | 0.0 | 0.00 | 0.00 | 0.00 | 95 | 989.2 |
| 20260902073610 | 73 | 357 | 0.0 | 0.0 | 0.00 | 0.00 | 0.00 | 95 | 989.2 |
| 20260902073111 | 73 | 357 | 0.0 | 0.0 | 0.00 | 0.00 | 0.00 | 95 | 989.2 |
| 20260902072610 | 73 | 357 | 0.0 | 0.0 | 0.00 | 0.00 | 0.00 | 95 | 989.2 |
| 20260902072111 | 73 | 357 | 0.0 | 0.0 | 0.00 | 0.00 | 0.00 | 94 | 989.3 |
| 20260902071110 | 73 | 357 | 0.0 | 0.0 | 0.00 | 0.00 | 0.00 | 94 | 989.3 |
| 20260902070610 | 73 | 357 | 0.0 | 0.0 | 0.00 | 0.00 | 0.00 | 94 | 989.3 |
| 20260902070110 | 73 | 357 | 0.0 | 0.0 | 0.00 | 0.00 | 0.00 | 94 | 989.2 |
| 20260902065611 | 73 | 357 | 0.0 | 0.0 | 0.00 | 0.00 | 0.00 | 94 | 989.3 |
| 20260902065110 | 73 | 357 | 0.0 | 0.0 | 0.00 | 0.00 | 0.00 | 94 | 989.3 |
| 20260902064110 | 73 | 357 | 0.0 | 0.0 | 0.00 | 0.00 | 0.00 | 93 | 989.4 |
| 20260902063610 | 73 | 357 | 0.0 | 0.0 | 0.00 | 0.00 | 0.00 | 93 | 989.4 |
| 20260902063110 | 74 | 357 | 0.0 | 0.0 | 0.00 | 0.00 | 0.00 | 94 | 989.4 |
| 20260902062610 | 74 | 357 | 0.0 | 0.0 | 0.00 | 0.00 | 0.00 | 93 | 989.3 |
| 20260902062110 | 74 | 357 | 0.0 | 0.0 | 0.00 | 0.00 | 0.00 | 93 | 989.3 |
| 20260902061610 | 74 | 357 | 0.0 | 0.0 | 0.00 | 0.00 | 0.00 | 92 | 989.4 |
| 20260902061110 | 74 | 357 | 0.0 | 0.0 | 0.00 | 0.00 | 0.00 | 92 | 989.4 |
| 20260902060110 | 74 | 357 | 0.0 | 0.0 | 0.00 | 0.00 | 0.00 | 91 | 989.3 |
| 20260902055610 | 74 | 357 | 0.0 | 0.0 | 0.00 | 0.00 | 0.00 | 91 | 989.4 |
| 20260902055110 | 75 | 357 | 0.0 | 0.0 | 0.00 | 0.00 | 0.00 | 90 | 989.4 |
| 20260902054610 | 75 | 357 | 0.0 | 0.0 | 0.00 | 0.00 | 0.00 | 90 | 989.4 |
| 20260902053610 | 75 | 357 | 0.0 | 0.0 | 0.00 | 0.00 | 0.00 | 90 | 989.4 |
| 20260902052110 | 75 | 357 | 0.0 | 0.0 | 0.00 | 0.00 | 0.00 | 90 | 989.4 |
| 20260902051610 | 75 | 357 | 0.0 | 0.0 | 0.00 | 0.00 | 0.00 | 89 | 989.4 |
| 20260902051110 | 75 | 332 | 0.0 | 0.0 | 0.00 | 0.00 | 0.00 | 89 | 989.4 |
| 20260902050610 | 75 | 332 | 0.0 | 0.0 | 0.00 | 0.00 | 0.00 | 89 | 989.4 |
| 20260902050110 | 75 | 332 | 0.0 | 0.0 | 0.00 | 0.00 | 0.00 | 88 | 989.4 |
| 20260902045610 | 76 | 332 | 0.0 | 0.0 | 0.00 | 0.00 | 0.00 | 88 | 989.4 |
| 20260902044110 | 76 | 332 | 0.0 | 0.0 | 0.00 | 0.00 | 0.00 | 87 | 989.4 |
| 20260902043610 | 76 | 332 | 0.0 | 0.0 | 0.00 | 0.00 | 0.00 | 86 | 989.4 |
| 20260902043109 | 77 | 332 | 0.0 | 0.0 | 0.00 | 0.00 | 0.00 | 85 | 989.5 |
| 20260902042610 | 77 | 332 | 0.0 | 0.0 | 0.00 | 0.00 | 0.00 | 85 | 989.4 |
| 20260902042109 | 77 | 339 | 0.0 | 0.0 | 0.00 | 0.00 | 0.00 | 84 | 989.4 |
| 20260902041609 | 77 | 339 | 0.0 | 0.0 | 0.00 | 0.00 | 0.00 | 84 | 989.4 |
| 20260902041110 | 78 | 339 | 0.0 | 0.0 | 0.00 | 0.00 | 0.00 | 84 | 989.4 |
| 20260902040610 | 78 | 339 | 0.0 | 0.0 | 0.00 | 0.00 | 0.00 | 84 | 989.4 |
| 20260902040109 | 78 | 339 | 0.0 | 0.0 | 0.00 | 0.00 | 0.00 | 84 | 989.5 |
| 20260902034610 | 78 | 73 | 0.0 | 0.0 | 0.00 | 0.00 | 0.00 | 83 | 989.4 |
| 20260902034109 | 78 | 73 | 0.0 | 0.0 | 0.00 | 0.00 | 0.00 | 83 | 989.4 |
| 20260902033609 | 78 | 73 | 0.0 | 0.0 | 0.00 | 0.00 | 0.00 | 83 | 989.4 |
| 20260902033110 | 78 | 73 | 0.0 | 0.0 | 0.00 | 0.00 | 0.00 | 83 | 989.4 |
| 20260902032609 | 78 | 73 | 0.0 | 0.0 | 0.00 | 0.00 | 0.00 | 83 | 989.4 |
| 20260902032109 | 78 | 73 | 0.0 | 0.0 | 0.00 | 0.00 | 0.00 | 83 | 989.4 |
| 20260902031610 | 79 | 73 | 0.0 | 0.0 | 0.00 | 0.00 | 0.00 | 82 | 989.4 |
| 20260902031110 | 79 | 73 | 0.0 | 0.0 | 0.00 | 0.00 | 0.00 | 81 | 989.4 |
| 20260902030610 | 79 | 73 | 0.0 | 0.0 | 0.00 | 0.00 | 0.00 | 80 | 989.4 |
| 20260902030110 | 79 | 73 | 0.0 | 0.9 | 0.00 | 0.00 | 0.00 | 80 | 989.4 |
| 20260902025610 | 79 | 26 | 0.0 | 0.9 | 0.00 | 0.00 | 0.00 | 80 | 989.4 |
| 20260902025110 | 80 | 300 | 0.0 | 0.0 | 0.00 | 0.00 | 0.00 | 80 | 989.4 |
| 20260902024610 | 80 | 300 | 0.0 | 0.0 | 0.00 | 0.00 | 0.00 | 79 | 989.4 |
| 20260902023609 | 80 | 300 | 0.0 | 0.0 | 0.00 | 0.00 | 0.00 | 79 | 989.4 |
| 20260902023110 | 80 | 300 | 0.0 | 0.0 | 0.00 | 0.00 | 0.00 | 79 | 989.4 |
| 20260902022609 | 80 | 300 | 0.0 | 0.0 | 0.00 | 0.00 | 0.00 | 79 | 989.4 |
| 20260902021609 | 80 | 300 | 0.0 | 0.0 | 0.00 | 0.00 | 0.00 | 78 | 989.4 |
| 20260902021110 | 80 | 300 | 0.0 | 0.9 | 0.00 | 0.00 | 0.00 | 79 | 989.4 |
| 20260902020610 | 80 | 166 | 0.0 | 0.0 | 0.00 | 0.00 | 0.00 | 79 | 989.4 |
| 20260902020110 | 80 | 166 | 0.0 | 0.0 | 0.00 | 0.00 | 0.00 | 78 | 989.4 |
| 20260902015110 | 80 | 166 | 0.0 | 0.0 | 0.00 | 0.00 | 0.00 | 78 | 989.3 |
| 20260902014610 | 80 | 166 | 0.0 | 0.0 | 0.00 | 0.00 | 0.00 | 78 | 989.3 |
| 20260902014109 | 81 | 166 | 0.0 | 0.0 | 0.00 | 0.00 | 0.00 | 77 | 989.3 |
| 20260902013609 | 81 | 166 | 0.0 | 0.0 | 0.00 | 0.00 | 0.00 | 77 | 989.3 |
| 20260902013110 | 82 | 166 | 0.0 | 0.0 | 0.00 | 0.00 | 0.00 | 74 | 989.3 |
| 20260902012110 | 82 | 166 | 0.0 | 0.0 | 0.00 | 0.00 | 0.00 | 74 | 989.1 |
| 20260902011610 | 82 | 166 | 0.0 | 0.0 | 0.00 | 0.00 | 0.00 | 73 | 989.0 |
| 20260902011110 | 83 | 166 | 0.0 | 0.0 | 0.00 | 0.00 | 0.00 | 72 | 989.0 |
| 20260902010610 | 83 | 166 | 0.0 | 0.0 | 0.00 | 0.00 | 0.00 | 72 | 988.9 |
| 20260902010109 | 83 | 166 | 0.0 | 0.0 | 0.00 | 0.00 | 0.00 | 71 | 988.9 |
| 20260902005610 | 84 | 166 | 0.0 | 0.0 | 0.00 | 0.00 | 0.00 | 71 | 988.9 |
| 20260902003610 | 85 | 154 | 0.0 | 1.7 | 0.00 | 0.00 | 0.00 | 68 | 988.8 |
| 20260902003110 | 85 | 166 | 0.9 | 1.7 | 0.00 | 0.00 | 0.00 | 68 | 988.8 |
| 20260902002610 | 85 | 162 | 0.0 | 0.9 | 0.00 | 0.00 | 0.00 | 67 | 988.8 |
| 20260902002110 | 85 | 214 | 0.0 | 0.0 | 0.00 | 0.00 | 0.00 | 67 | 988.9 |
| 20260902001610 | 86 | 214 | 0.0 | 0.0 | 0.00 | 0.00 | 0.00 | 67 | 988.9 |
| 20260902000609 | 87 | 214 | 0.0 | 0.0 | 0.00 | 0.00 | 0.00 | 66 | 989.0 |
| 20260902000109 | 87 | 214 | 0.0 | 0.0 | 0.00 | 0.00 | 0.00 | 65 | 989.0 |
| 20260901235609 | 88 | 214 | 0.0 | 0.0 | 0.00 | 0.00 | 0.00 | 64 | 989.0 |
| 20260901235109 | 88 | 214 | 0.0 | 0.0 | 0.00 | 0.00 | 0.00 | 62 | 989.0 |
| 20260901234609 | 89 | 214 | 0.0 | 0.0 | 0.00 | 0.00 | 0.00 | 62 | 989.0 |
| 20260901233610 | 90 | 214 | 0.0 | 0.0 | 0.00 | 0.00 | 0.00 | 60 | 989.1 |
| 20260901232609 | 92 | 214 | 0.0 | 0.9 | 0.00 | 0.00 | 0.00 | 57 | 989.2 |
| 20260901232109 | 93 | 208 | 0.0 | 0.0 | 0.00 | 0.00 | 0.00 | 56 | 989.2 |
| 20260901231609 | 94 | 208 | 0.0 | 0.0 | 0.00 | 0.00 | 0.00 | 55 | 989.2 |
| 20260901231109 | 95 | 208 | 0.0 | 0.0 | 0.00 | 0.00 | 0.00 | 53 | 989.2 |
| 20260901230610 | 95 | 208 | 0.0 | 0.0 | 0.00 | 0.00 | 0.00 | 51 | 989.2 |
| 20260901225610 | 96 | 233 | 0.0 | 0.0 | 0.00 | 0.00 | 0.00 | 50 | 989.2 |
| 20260901225109 | 95 | 233 | 0.0 | 0.0 | 0.00 | 0.00 | 0.00 | 50 | 989.1 |
| 20260901224609 | 95 | 235 | 0.0 | 2.6 | 0.00 | 0.00 | 0.00 | 50 | 989.1 |
| 20260901224109 | 95 | 251 | 0.0 | 2.6 | 0.00 | 0.00 | 0.00 | 50 | 989.1 |
| 20260901223609 | 94 | 225 | 0.9 | 1.7 | 0.00 | 0.00 | 0.00 | 50 | 989.1 |
| 20260901223109 | 94 | 227 | 0.9 | 2.6 | 0.00 | 0.00 | 0.00 | 50 | 989.0 |
| 20260901222610 | 94 | 234 | 1.7 | 2.6 | 0.00 | 0.00 | 0.00 | 51 | 989.0 |
| 20260901222109 | 94 | 242 | 0.9 | 4.3 | 0.00 | 0.00 | 0.00 | 50 | 989.0 |
| 20260901221609 | 94 | 230 | 1.7 | 4.3 | 0.00 | 0.00 | 0.00 | 50 | 989.1 |
| 20260901221109 | 94 | 242 | 1.7 | 5.2 | 0.00 | 0.00 | 0.00 | 49 | 989.1 |
| 20260901220609 | 95 | 244 | 2.6 | 6.1 | 0.00 | 0.00 | 0.00 | 49 | 989.0 |
| 20260901220109 | 95 | 277 | 0.9 | 1.7 | 0.00 | 0.00 | 0.00 | 50 | 989.0 |
| 20260901215610 | 95 | 216 | 0.9 | 4.3 | 0.00 | 0.00 | 0.00 | 50 | 988.9 |
| 20260901215109 | 95 | 232 | 0.9 | 7.0 | 0.00 | 0.00 | 0.00 | 49 | 988.9 |
| 20260901214609 | 96 | 245 | 1.7 | 7.0 | 0.00 | 0.00 | 0.00 | 49 | 988.9 |
| 20260901214109 | 96 | 213 | 0.9 | 2.6 | 0.00 | 0.00 | 0.00 | 49 | 988.9 |
| 20260901213609 | 96 | 235 | 0.9 | 4.3 | 0.00 | 0.00 | 0.00 | 51 | 988.9 |
| 20260901213109 | 95 | 230 | 0.9 | 2.6 | 0.00 | 0.00 | 0.00 | 51 | 988.9 |
| 20260901212610 | 95 | 191 | 1.7 | 2.6 | 0.00 | 0.00 | 0.00 | 50 | 989.0 |
| 20260901212110 | 94 | 229 | 1.7 | 4.3 | 0.00 | 0.00 | 0.00 | 49 | 989.0 |
| 20260901211609 | 94 | 226 | 1.7 | 6.1 | 0.00 | 0.00 | 0.00 | 49 | 988.9 |
| 20260901211110 | 94 | 255 | 1.7 | 7.8 | 0.00 | 0.00 | 0.00 | 50 | 988.9 |
| 20260901210610 | 94 | 207 | 0.9 | 2.6 | 0.00 | 0.00 | 0.00 | 50 | 988.9 |
| 20260901210109 | 93 | 247 | 0.9 | 1.7 | 0.00 | 0.00 | 0.00 | 52 | 988.9 |
| 20260901204609 | 93 | 223 | 1.7 | 6.1 | 0.00 | 0.00 | 0.00 | 52 | 989.2 |
| 20260901204109 | 93 | 244 | 0.9 | 2.6 | 0.00 | 0.00 | 0.00 | 54 | 989.2 |
| 20260901203609 | 94 | 216 | 1.7 | 4.3 | 0.00 | 0.00 | 0.00 | 51 | 989.2 |
| 20260901202109 | 94 | 221 | 1.7 | 6.1 | 0.00 | 0.00 | 0.00 | 51 | 989.2 |
| 20260901201609 | 94 | 217 | 1.7 | 5.2 | 0.00 | 0.00 | 0.00 | 51 | 989.2 |
| 20260901201109 | 94 | 209 | 1.7 | 2.6 | 0.00 | 0.00 | 0.00 | 50 | 989.2 |
| 20260901200609 | 94 | 203 | 3.5 | 6.1 | 0.00 | 0.00 | 0.00 | 52 | 989.2 |
| 20260901200110 | 94 | 196 | 2.6 | 7.0 | 0.00 | 0.00 | 0.00 | 50 | 989.2 |
| 20260901195609 | 94 | 229 | 1.7 | 4.3 | 0.00 | 0.00 | 0.00 | 52 | 989.2 |